Time,TemperatureF,DewpointF,PressureIn,WindDirection,WindDirectionDegrees,WindSpeedMPH,WindSpeedGustMPH,Humidity,HourlyPrecipIn,Conditions,Clouds,dailyrainin,SoftwareType,DateUTC
2013-08-07 00:11:00,64.9,54.0,30.19,SW,226,0.0,2.0,69,0.00,,,0.00,weatherlink.com 1.10,2013-08-07 04:11:00,
2013-08-07 00:26:00,64.7,55.0,30.19,SW,233,0.0,3.0,70,0.00,,,0.00,weatherlink.com 1.10,2013-08-07 04:26:00,
2013-08-07 00:41:00,64.4,55.0,30.19,SW,222,0.0,3.0,71,0.00,,,0.00,weatherlink.com 1.10,2013-08-07 04:41:00,
2013-08-07 00:56:00,64.1,55.0,30.19,SSW,212,2.0,2.0,72,0.00,,,0.00,weatherlink.com 1.10,2013-08-07 04:56:00,
2013-08-07 01:11:00,63.7,55.0,30.19,SSE,163,0.0,1.0,73,0.00,,,0.00,weatherlink.com 1.10,2013-08-07 05:11:00,
2013-08-07 01:26:00,63.6,55.0,30.20,SE,124,2.0,2.0,74,0.00,,,0.00,weatherlink.com 1.10,2013-08-07 05:26:00,
2013-08-07 01:41:00,63.2,55.0,30.20,SW,225,0.0,1.0,75,0.00,,,0.00,weatherlink.com 1.10,2013-08-07 05:41:00,
2013-08-07 01:56:00,63.0,55.0,30.20,ESE,111,0.0,1.0,76,0.00,,,0.00,weatherlink.com 1.10,2013-08-07 05:56:00,
2013-08-07 02:11:00,62.8,56.0,30.20,South,172,0.0,3.0,77,0.00,,,0.00,weatherlink.com 1.10,2013-08-07 06:11:00,
2013-08-07 02:26:00,62.6,56.0,30.20,SW,235,0.0,1.0,79,0.00,,,0.00,weatherlink.com 1.10,2013-08-07 06:26:00,
2013-08-07 02:41:00,62.9,56.0,30.20,SW,228,1.0,4.0,79,0.00,,,0.00,weatherlink.com 1.10,2013-08-07 06:41:00,
2013-08-07 02:56:00,62.6,56.0,30.21,SW,226,0.0,1.0,79,0.00,,,0.00,weatherlink.com 1.10,2013-08-07 06:56:00,
2013-08-07 03:11:00,63.0,57.0,30.21,West,266,1.0,3.0,81,0.00,,,0.00,weatherlink.com 1.10,2013-08-07 07:11:00,
2013-08-07 03:26:00,63.3,57.0,30.20,WSW,239,1.0,2.0,81,0.00,,,0.00,weatherlink.com 1.10,2013-08-07 07:26:00,
2013-08-07 03:41:00,63.3,57.0,30.20,West,278,0.0,1.0,81,0.00,,,0.00,weatherlink.com 1.10,2013-08-07 07:41:00,
2013-08-07 03:56:00,62.8,57.0,30.20,SW,217,1.0,2.0,82,0.00,,,0.00,weatherlink.com 1.10,2013-08-07 07:56:00,
2013-08-07 04:11:00,62.5,57.0,30.21,SW,229,0.0,2.0,83,0.00,,,0.00,weatherlink.com 1.10,2013-08-07 08:11:00,
2013-08-07 04:26:00,62.3,57.0,30.22,SSE,154,1.0,3.0,84,0.00,,,0.00,weatherlink.com 1.10,2013-08-07 08:26:00,
2013-08-07 04:41:00,61.9,57.0,30.22,SW,236,0.0,2.0,84,0.00,,,0.00,weatherlink.com 1.10,2013-08-07 08:41:00,
2013-08-07 04:56:00,61.6,57.0,30.22,SW,235,0.0,1.0,85,0.00,,,0.00,weatherlink.com 1.10,2013-08-07 08:56:00,
2013-08-07 05:11:00,61.6,57.0,30.22,SE,144,0.0,3.0,85,0.00,,,0.00,weatherlink.com 1.10,2013-08-07 09:11:00,
2013-08-07 05:26:00,61.0,57.0,30.22,SW,225,0.0,2.0,86,0.00,,,0.00,weatherlink.com 1.10,2013-08-07 09:26:00,
2013-08-07 05:41:00,61.0,57.0,30.23,SW,226,0.0,2.0,87,0.00,,,0.00,weatherlink.com 1.10,2013-08-07 09:41:00,
2013-08-07 05:56:00,61.2,57.0,30.23,SSW,210,0.0,2.0,86,0.00,,,0.00,weatherlink.com 1.10,2013-08-07 09:56:00,
2013-08-07 06:11:00,62.1,58.0,30.22,SE,124,0.0,1.0,85,0.00,,,0.00,weatherlink.com 1.10,2013-08-07 10:11:00,
2013-08-07 06:26:00,62.8,58.0,30.22,South,172,0.0,2.0,83,0.00,,,0.00,weatherlink.com 1.10,2013-08-07 10:26:00,
2013-08-07 06:41:00,63.2,58.0,30.22,SSW,197,0.0,1.0,83,0.00,,,0.00,weatherlink.com 1.10,2013-08-07 10:41:00,
2013-08-07 06:56:00,64.3,58.0,30.22,SE,141,0.0,1.0,81,0.00,,,0.00,weatherlink.com 1.10,2013-08-07 10:56:00,
2013-08-07 07:11:00,64.7,59.0,30.22,ESE,122,0.0,3.0,81,0.00,,,0.00,weatherlink.com 1.10,2013-08-07 11:11:00,
2013-08-07 07:26:00,65.8,59.0,30.23,SW,229,0.0,2.0,79,0.00,,,0.00,weatherlink.com 1.10,2013-08-07 11:26:00,
2013-08-07 07:41:00,67.2,59.0,30.23,SSW,200,0.0,3.0,75,0.00,,,0.00,weatherlink.com 1.10,2013-08-07 11:41:00,
2013-08-07 07:56:00,68.7,59.0,30.23,SW,225,1.0,3.0,72,0.00,,,0.00,weatherlink.com 1.10,2013-08-07 11:56:00,
2013-08-07 08:11:00,68.4,59.0,30.23,SW,222,3.0,3.0,71,0.00,,,0.00,weatherlink.com 1.10,2013-08-07 12:11:00,
2013-08-07 08:27:00,69.9,60.0,30.23,SE,135,0.0,3.0,70,0.00,,,0.00,weatherlink.com 1.10,2013-08-07 12:27:00,
2013-08-07 08:42:00,70.4,59.0,30.23,South,182,3.0,5.0,67,0.00,,,0.00,weatherlink.com 1.10,2013-08-07 12:42:00,
2013-08-07 08:57:00,71.0,58.0,30.23,West,260,0.0,5.0,64,0.00,,,0.00,weatherlink.com 1.10,2013-08-07 12:57:00,
2013-08-07 09:12:00,71.6,57.0,30.22,ESE,110,0.0,5.0,61,0.00,,,0.00,weatherlink.com 1.10,2013-08-07 13:12:00,
2013-08-07 09:27:00,72.8,56.0,30.22,SSE,160,0.0,5.0,55,0.00,,,0.00,weatherlink.com 1.10,2013-08-07 13:27:00,
2013-08-07 09:42:00,73.3,54.0,30.22,SSW,198,1.0,4.0,52,0.00,,,0.00,weatherlink.com 1.10,2013-08-07 13:42:00,
2013-08-07 09:57:00,73.6,52.0,30.23,WSW,250,2.0,6.0,47,0.00,,,0.00,weatherlink.com 1.10,2013-08-07 13:57:00,
2013-08-07 10:12:00,73.5,53.0,30.22,SW,217,2.0,5.0,49,0.00,,,0.00,weatherlink.com 1.10,2013-08-07 14:12:00,
2013-08-07 10:27:00,73.4,54.0,30.22,SSW,208,3.0,5.0,51,0.00,,,0.00,weatherlink.com 1.10,2013-08-07 14:27:00,
2013-08-07 10:42:00,75.6,55.0,30.22,WSW,241,4.0,5.0,49,0.00,,,0.00,weatherlink.com 1.10,2013-08-07 14:42:00,
2013-08-07 10:57:00,76.0,49.0,30.22,SW,222,3.0,10.0,39,0.00,,,0.00,weatherlink.com 1.10,2013-08-07 14:57:00,
2013-08-07 11:12:00,76.6,50.0,30.22,SSW,210,1.0,8.0,39,0.00,,,0.00,weatherlink.com 1.10,2013-08-07 15:12:00,
2013-08-07 11:27:00,77.2,48.0,30.22,ESE,113,4.0,7.0,36,0.00,,,0.00,weatherlink.com 1.10,2013-08-07 15:27:00,
2013-08-07 11:42:00,76.8,53.0,30.21,SSW,197,5.0,8.0,44,0.00,,,0.00,weatherlink.com 1.10,2013-08-07 15:42:00,
2013-08-07 11:57:00,77.2,52.0,30.21,SW,232,4.0,8.0,42,0.00,,,0.00,weatherlink.com 1.10,2013-08-07 15:57:00,
2013-08-07 12:12:00,76.7,54.0,30.21,ENE,75,3.0,9.0,46,0.00,,,0.00,weatherlink.com 1.10,2013-08-07 16:12:00,
2013-08-07 12:27:00,76.5,54.0,30.21,SE,143,8.0,11.0,46,0.00,,,0.00,weatherlink.com 1.10,2013-08-07 16:27:00,
2013-08-07 12:42:00,75.7,56.0,30.20,East,89,7.0,10.0,51,0.00,,,0.00,weatherlink.com 1.10,2013-08-07 16:42:00,
2013-08-07 12:57:00,76.8,56.0,30.21,SSE,155,5.0,10.0,48,0.00,,,0.00,weatherlink.com 1.10,2013-08-07 16:57:00,
2013-08-07 13:12:00,76.8,57.0,30.20,South,169,5.0,12.0,51,0.00,,,0.00,weatherlink.com 1.10,2013-08-07 17:12:00,
2013-08-07 13:27:00,75.9,57.0,30.20,East,79,7.0,11.0,53,0.00,,,0.00,weatherlink.com 1.10,2013-08-07 17:27:00,
2013-08-07 13:42:00,75.9,57.0,30.20,East,91,8.0,11.0,53,0.00,,,0.00,weatherlink.com 1.10,2013-08-07 17:42:00,
2013-08-07 13:57:00,76.2,57.0,30.20,ENE,71,6.0,12.0,52,0.00,,,0.00,weatherlink.com 1.10,2013-08-07 17:57:00,
2013-08-07 14:12:00,78.1,56.0,30.19,East,84,7.0,9.0,46,0.00,,,0.00,weatherlink.com 1.10,2013-08-07 18:12:00,
2013-08-07 14:27:00,78.7,56.0,30.20,WSW,257,4.0,9.0,45,0.00,,,0.00,weatherlink.com 1.10,2013-08-07 18:27:00,
2013-08-07 14:42:00,79.1,56.0,30.19,ESE,110,6.0,9.0,45,0.00,,,0.00,weatherlink.com 1.10,2013-08-07 18:42:00,
2013-08-07 14:57:00,79.7,54.0,30.18,SSE,164,6.0,11.0,41,0.00,,,0.00,weatherlink.com 1.10,2013-08-07 18:57:00,
2013-08-07 15:12:00,80.1,53.0,30.18,SSW,208,7.0,11.0,39,0.00,,,0.00,weatherlink.com 1.10,2013-08-07 19:12:00,
2013-08-07 15:27:00,80.7,51.0,30.18,SSW,197,14.0,14.0,36,0.00,,,0.00,weatherlink.com 1.10,2013-08-07 19:27:00,
2013-08-07 15:42:00,79.9,50.0,30.18,SSW,195,2.0,15.0,35,0.00,,,0.00,weatherlink.com 1.10,2013-08-07 19:42:00,
2013-08-07 15:57:00,80.0,51.0,30.18,SSW,204,3.0,11.0,36,0.00,,,0.00,weatherlink.com 1.10,2013-08-07 19:57:00,
2013-08-07 16:12:00,79.8,48.0,30.18,South,173,8.0,13.0,33,0.00,,,0.00,weatherlink.com 1.10,2013-08-07 20:12:00,
2013-08-07 16:27:00,79.6,48.0,30.17,SSW,207,4.0,11.0,33,0.00,,,0.00,weatherlink.com 1.10,2013-08-07 20:27:00,
2013-08-07 16:42:00,79.7,50.0,30.17,SSW,205,5.0,10.0,36,0.00,,,0.00,weatherlink.com 1.10,2013-08-07 20:42:00,
2013-08-07 16:57:00,80.0,53.0,30.16,SW,225,4.0,11.0,39,0.00,,,0.00,weatherlink.com 1.10,2013-08-07 20:57:00,
2013-08-07 17:12:00,78.8,52.0,30.17,SW,222,6.0,11.0,40,0.00,,,0.00,weatherlink.com 1.10,2013-08-07 21:12:00,
2013-08-07 17:27:00,78.3,53.0,30.16,ESE,109,3.0,13.0,41,0.00,,,0.00,weatherlink.com 1.10,2013-08-07 21:27:00,
2013-08-07 17:42:00,78.3,51.0,30.16,SW,226,6.0,9.0,39,0.00,,,0.00,weatherlink.com 1.10,2013-08-07 21:42:00,
2013-08-07 17:57:00,77.3,50.0,30.16,WSW,248,7.0,12.0,39,0.00,,,0.00,weatherlink.com 1.10,2013-08-07 21:57:00,
2013-08-07 18:13:00,77.1,48.0,30.16,SW,227,10.0,13.0,36,0.00,,,0.00,weatherlink.com 1.10,2013-08-07 22:13:00,
2013-08-07 18:27:00,77.1,48.0,30.16,South,172,6.0,11.0,36,0.00,,,0.00,weatherlink.com 1.10,2013-08-07 22:27:00,
2013-08-07 18:42:00,75.9,48.0,30.16,West,263,3.0,11.0,37,0.00,,,0.00,weatherlink.com 1.10,2013-08-07 22:42:00,
2013-08-07 18:57:00,74.6,46.0,30.16,ESE,122,6.0,11.0,36,0.00,,,0.00,weatherlink.com 1.10,2013-08-07 22:57:00,
2013-08-07 19:12:00,73.7,47.0,30.16,SSE,165,6.0,10.0,39,0.00,,,0.00,weatherlink.com 1.10,2013-08-07 23:12:00,
2013-08-07 19:27:00,72.8,49.0,30.16,WSW,240,6.0,11.0,43,0.00,,,0.00,weatherlink.com 1.10,2013-08-07 23:27:00,
2013-08-07 19:44:00,72.2,50.0,30.17,SW,233,6.0,9.0,45,0.00,,,0.00,weatherlink.com 1.10,2013-08-07 23:44:00,
2013-08-07 19:58:00,71.6,51.0,30.17,WSW,248,4.0,10.0,49,0.00,,,0.00,weatherlink.com 1.10,2013-08-07 23:58:00,
2013-08-07 20:13:00,71.0,53.0,30.16,SE,142,7.0,11.0,53,0.00,,,0.00,weatherlink.com 1.10,2013-08-08 00:13:00,
2013-08-07 20:28:00,70.5,54.0,30.17,SW,224,5.0,11.0,56,0.00,,,0.00,weatherlink.com 1.10,2013-08-08 00:28:00,
2013-08-07 20:43:00,69.8,55.0,30.17,SSW,208,6.0,8.0,59,0.00,,,0.00,weatherlink.com 1.10,2013-08-08 00:43:00,
2013-08-07 20:58:00,69.4,55.0,30.18,SW,225,5.0,7.0,61,0.00,,,0.00,weatherlink.com 1.10,2013-08-08 00:58:00,
2013-08-07 21:13:00,69.0,55.0,30.18,SW,221,3.0,8.0,62,0.00,,,0.00,weatherlink.com 1.10,2013-08-08 01:13:00,
2013-08-07 21:28:00,68.6,55.0,30.18,SE,140,2.0,8.0,63,0.00,,,0.00,weatherlink.com 1.10,2013-08-08 01:28:00,
2013-08-07 21:43:00,68.4,55.0,30.18,SSE,163,1.0,10.0,63,0.00,,,0.00,weatherlink.com 1.10,2013-08-08 01:43:00,
2013-08-07 21:58:00,67.9,55.0,30.18,SSW,200,3.0,6.0,64,0.00,,,0.00,weatherlink.com 1.10,2013-08-08 01:58:00,
2013-08-07 22:13:00,67.8,55.0,30.18,SW,227,7.0,8.0,63,0.00,,,0.00,weatherlink.com 1.10,2013-08-08 02:13:00,
2013-08-07 22:28:00,67.6,54.0,30.18,SSW,201,3.0,7.0,62,0.00,,,0.00,weatherlink.com 1.10,2013-08-08 02:28:00,
2013-08-07 22:43:00,67.5,53.0,30.17,SSW,211,2.0,9.0,60,0.00,,,0.00,weatherlink.com 1.10,2013-08-08 02:43:00,
2013-08-07 22:58:00,67.3,52.0,30.17,SE,133,0.0,4.0,59,0.00,,,0.00,weatherlink.com 1.10,2013-08-08 02:58:00,
2013-08-07 23:13:00,67.0,52.0,30.18,SW,226,2.0,7.0,60,0.00,,,0.00,weatherlink.com 1.10,2013-08-08 03:13:00,
2013-08-07 23:28:00,66.9,52.0,30.18,South,176,0.0,4.0,59,0.00,,,0.00,weatherlink.com 1.10,2013-08-08 03:28:00,
2013-08-07 23:43:00,66.8,52.0,30.18,SSE,154,1.0,5.0,60,0.00,,,0.00,weatherlink.com 1.10,2013-08-08 03:43:00,
2013-08-07 23:58:00,66.7,53.0,30.19,SSE,149,3.0,5.0,61,0.00,,,0.00,weatherlink.com 1.10,2013-08-08 03:58:00,